Showing default

SPACEMOBILE-004, 61049

Orbit data source: Space-Track

SPACEMOBILE-004, 61049 is a payload satellite owned by AST & Science (US) in LEO that was launched on Thu, 12 Sep 2024 UTC via an FALCON 9 launch vehicle from the Air Force Eastern Test Range (AFETR). Payload-class satellites include a variety of spacecraft equipped with specific instruments for various scientific and technological missions. These include communications satellites like Starlink; space stations such as the ISS; scientific satellites like the Hubble; Earth observation satellites from companies like Planet Labs, Umbra, and HawkEye 360; GPS; miniature CubeSats for education and research; and military/defense satellites.

Loading next visibility...
Identifier
61049, 2024-163E
Orbit
LEO
Country
Flag of USUS
Related business
Manufacturer
AST & Science
Mission
Operational Commercial Communications
Bus & Motor
BW3, Unknown motor
Mass
1,500 kg wet, 1,500 kg dry
Launch date (UTC)
2024-09-12 (1 year ago)
Launch vehicle
FALCON 9
Launch site
Air Force Eastern Test Range (AFETR)
Object type
Payload
Rocket body
Debris
Shape & HBR
Box + 1 Plate, 6.5 m
Radar Cross Section
32.590 m², Large (>1 m²)

Expand to show TLE details & history
Last TLE update: 19 hours ago

TLE from 19 hours ago
0 SPACEMOBILE-004
1 61049U 24163E   25342.61231089  .00025358  00000-0  11406-2 0  9999
2 61049  52.9704 105.5877 0009465 295.9264  64.0754 15.20939975 68766
Epoch: 2025-12-08T14:41Z
TLE epoch observation values (Epoch: 2025-12-08T14:41:43.660Z)
Latitude
-0.00008°
Longitude
167.54688°
Altitude
501.037 km
Speed
7.617 km/s
True Right ascension
07h 02m 21s
True Declination
0° 00' 00"
Sunlit
Object was in full shadow at epoch
Visualization orbit readout
Latitude
Unknown
Longitude
Unknown
Altitude
Unknown
Speed
Unknown
Apparent Right ascension
Unknown
Apparent Declination
Unknown
Sunlit
N/A
Visualization observer readout
Local Sidereal Time
07:42:08
Azimuth
Unknown
Elevation
Unknown
Doppler factor
Unknown
Orbital elements
Apogee altitude
509.803 km
Perigee altitude
496.777 km
Semi-major axis
6,881.427 km
Eccentricity
0.00095
Inclination
52.9704°
RAAN
105.5877°
Arg. of periapsis
295.9264°
True anomaly
64.173°
Mean anomaly
64.0754°
Eccentric anomaly
64.12419°
Mean motion
3.80212 °/min
Orbital period
94.68 mins
BSTAR
0.0011406
Loading maneuver chart data...
Computing Atmospheric mass density...
Loading historical data...
Loading historical data...
Loading historical data...
Loading historical data...
Loading historical data...
Loading historical data...
Loading historical data...

Documentation

Showing up to 5 results
|